Wind_Speed
17 13 9 11 14 13 16 15 19 21 20 19 11 15 17 17 18 22 19 17 16 19 23 28 26 27 24 19 23 27 27 22 22 22 16 16 19 12 14 13 17 21 30 19 18 22 27 27 16
21 18 14 13 15 13 20 23 21 13 14 7 18 18 17 17 21 21 18 17 18 21 23 27 30 27 26 25 24 27 22 21 20 27 11 11 15 16 16 15 16 20 24 21 21 21 26 25 16
21 23 17 16 15 20 25 23 15 12 11 14 18 18 18 22 22 20 17 16 20 23 23 28 27 26 28 27 27 26 22 18 19 15 7 9 14 16 18 24 20 19 22 17 19 23 26 25 20
25 21 21 23 15 7 8 14 13 15 13 17 14 10 20 19 19 18 17 16 21 21 25 26 27 27 30 29 27 24 23 18 16 17 10 0 6 12 14 22 18 20 20 18 19 22 27 28 24
24 10 21 27 25 21 27 20 19 17 20 20 16 22 22 19 19 21 18 17 20 20 25 27 27 26 33 29 25 22 22 20 16 18 10 9 8 6 15 21 16 17 22 23 22 19 22 25 23
31 31 18 14 14 24 27 24 22 17 17 19 20 21 23 20 20 20 18 18 18 21 25 27 28 30 34 24 21 23 22 20 16 15 7 7 11 11 13 21 18 15 21 20 23 19 21 22 22
28 21 20 27 26 26 24 21 24 21 19 22 21 24 23 18 17 19 16 17 16 21 26 27 27 29 29 19 20 27 21 20 12 7 4 4 5 12 17 20 21 13 22 23 22 19 20 23 17
27 32 28 20 24 26 22 18 20 17 17 16 18 24 17 18 14 20 19 17 17 24 25 28 26 26 24 17 23 26 22 17 13 9 5 10 8 19 17 19 18 11 15 19 20 20 21 24 22
28 28 28 28 26 19 12 13 15 15 18 10 14 11 18 10 17 21 18 16 17 21 24 26 26 20 18 17 21 25 19 19 16 11 8 10 17 21 20 20 20 11 13 18 15 21 19 18 19
29 28 26 27 27 27 23 18 14 17 14 13 14 19 18 10 16 14 15 13 19 20 25 24 25 16 19 22 20 21 16 21 19 13 12 6 16 18 19 22 19 14 11 15 14 18 18 22 20
27 26 28 28 27 27 24 16 19 19 16 10 8 17 18 18 17 16 19 20 23 24 23 24 22 15 19 22 20 22 18 25 21 16 11 15 16 20 20 25 12 12 7 12 15 16 15 23 27
25 24 28 28 30 26 25 21 24 18 20 14 11 8 9 16 17 18 19 22 25 29 28 23 16 18 18 21 24 21 19 27 22 21 13 11 11 12 16 12 11 4 4 8 11 15 15 19 20
26 27 26 29 31 27 24 23 27 24 27 20 28 16 19 26 22 22 27 28 24 14 21 19 12 19 22 23 29 25 26 25 23 25 18 10 12 13 12 2 2 1 3 8 10 18 11 13 18
33 30 26 27 31 31 27 24 22 25 24 20 21 27 22 8 20 24 24 20 12 22 23 16 19 34 32 23 30 23 20 34 35 22 13 6 7 5 2 4 4 4 3 7 8 11 17 14 20
35 31 28 26 30 33 31 30 25 22 14 13 15 24 26 11 17 10 15 9 24 25 28 26 35 37 20 26 21 23 32 35 19 18 6 3 8 4 5 8 6 7 3 5 9 11 14 14 15
39 35 32 32 28 30 32 30 28 20 16 8 27 31 24 22 32 25 12 17 16 12 16 31 25 27 23 27 23 31 33 25 21 16 5 8 10 8 7 8 3 5 4 7 8 8 7 7 9
46 43 37 33 31 34 32 32 28 26 17 24 26 26 23 25 21 21 17 14 13 17 22 27 28 21 18 31 33 38 34 29 21 11 8 8 8 14 7 11 10 6 5 9 7 6 5 3 10
48 47 44 39 38 36 31 34 32 30 22 24 21 19 24 22 23 25 22 19 21 19 26 31 35 31 33 30 37 37 23 17 18 4 9 6 6 15 7 10 8 7 8 8 5 1 3 6 6
47 50 47 45 44 38 34 35 35 35 33 34 28 21 26 25 25 26 26 24 23 27 34 35 40 39 38 39 43 23 21 19 13 9 9 7 1 10 2 6 5 10 9 5 4 2 2 10 5
43 48 49 47 47 43 38 38 36 36 35 32 29 28 26 23 25 24 28 28 28 29 34 32 24 28 34 40 40 23 13 18 10 13 13 10 2 7 3 8 8 6 10 4 6 2 2 1 5
39 41 48 48 51 46 43 40 39 37 36 32 30 27 27 22 25 25 25 27 29 29 33 31 31 37 43 44 24 21 18 19 16 17 6 8 4 4 4 5 7 9 12 13 6 1 2 8 0
39 42 40 46 49 49 44 42 41 38 37 34 31 27 28 24 16 21 25 27 25 26 28 33 38 43 45 41 29 28 20 13 18 17 12 12 5 5 4 3 5 4 8 11 13 7 8 6 4
37 39 39 41 45 47 45 44 45 40 36 32 29 26 25 26 22 19 24 26 26 28 32 35 36 38 40 39 29 30 31 29 20 23 17 12 10 6 10 10 10 11 6 10 10 13 9 10 9
36 38 40 40 43 47 46 39 39 37 35 30 29 28 19 18 18 19 23 24 25 28 27 29 31 31 26 26 26 34 37 33 25 31 23 12 7 10 13 14 17 9 11 13 15 14 14 16 15
34 37 40 40 37 41 40 36 23 36 31 31 26 31 32 35 25 19 17 20 22 22 25 27 26 23 22 27 23 23 23 20 22 22 26 13 13 10 14 14 16 15 15 18 16 15 13 13 19
30 32 35 38 36 40 37 38 36 35 30 30 35 33 35 37 35 28 24 23 25 24 23 22 23 22 26 28 22 19 22 16 21 17 16 14 17 15 14 15 17 13 14 14 15 16 17 17 18
30 31 34 37 37 35 35 37 35 32 26 22 21 26 32 42 36 28 28 31 25 22 21 26 18 17 23 26 25 22 26 21 18 18 17 17 21 20 19 21 14 13 12 10 8 9 12 14 14
27 29 32 34 33 31 33 33 26 22 12 20 16 26 29 37 32 32 27 26 23 20 20 22 17 14 9 17 22 21 24 23 17 15 21 18 26 25 29 21 16 13 15 16 13 12 13 12 12
27 31 34 34 33 36 36 37 19 27 22 17 16 23 15 20 23 26 26 22 19 17 17 23 21 19 20 20 21 22 28 32 25 19 23 21 17 16 17 21 20 18 13 13 11 10 12 12 13
28 34 36 40 41 38 39 37 25 25 33 24 18 17 18 17 19 19 28 23 17 13 16 19 23 20 21 21 14 23 31 38 25 24 26 21 18 18 19 18 23 19 19 17 17 18 18 18 19
Wind_Direction
236 240 253 244 273 284 295 288 236 281 282 304 286 321 301 307 330 338 342 338 347 349 356 2 0 354 347 340 336 337 339 342 345 351 351 0 353 353 13 11 12 20 12 14 20 9 6 9 42
243 248 253 263 265 250 237 261 269 281 269 235 312 313 324 323 324 344 340 339 337 340 349 355 357 350 346 334 333 339 343 346 343 358 359 11 359 348 24 13 353 6 19 16 18 14 4 13 33
247 253 248 246 261 273 262 251 253 283 278 300 299 302 292 305 319 339 335 330 328 333 348 353 0 352 345 338 330 336 338 338 344 11 337 354 2 343 15 9 2 359 2 3 14 11 9 11 18
248 256 250 236 234 235 241 252 263 274 294 291 308 288 291 292 314 328 328 321 321 328 344 350 354 347 341 339 332 335 338 335 333 358 323 232 0 4 337 5 6 14 16 15 11 12 8 4 10
237 265 250 239 219 251 224 276 275 274 288 284 287 283 282 303 310 314 323 312 319 332 339 347 344 344 343 341 341 343 339 343 334 338 337 318 357 317 350 6 0 5 12 13 9 9 9 13 8
242 229 233 211 237 245 259 267 267 265 272 278 280 276 276 291 300 300 317 312 335 334 339 341 340 340 340 343 354 347 340 342 337 342 305 344 333 338 338 2 7 7 8 9 17 8 14 18 20
241 252 263 256 257 254 260 261 272 270 267 258 282 281 269 292 304 305 312 310 339 339 336 338 336 337 342 354 348 357 345 344 333 318 339 351 307 298 310 340 353 6 17 10 7 20 23 19 28
232 217 238 241 248 251 258 263 255 262 275 270 285 279 271 289 291 309 311 307 329 330 333 336 336 340 343 339 353 353 347 344 324 290 293 290 260 273 288 320 353 356 10 16 22 26 26 19 17
237 235 240 251 256 256 235 247 266 254 244 203 278 268 285 268 275 311 305 307 326 323 331 334 335 347 342 335 343 349 352 358 345 300 291 282 268 255 274 301 341 333 2 4 13 20 23 19 22
240 241 240 242 248 251 236 258 236 238 221 217 277 274 278 270 272 299 298 313 316 322 328 329 333 341 342 344 335 344 346 349 347 324 288 263 277 280 271 304 342 337 337 8 11 9 31 28 33
238 236 234 233 238 246 247 228 213 212 214 207 276 248 289 271 295 306 294 304 303 310 318 324 325 326 335 347 338 334 336 340 337 319 294 291 255 261 275 295 326 333 338 17 13 11 42 34 33
234 232 233 236 232 235 246 222 209 201 213 239 238 282 283 274 286 290 297 308 309 317 322 322 321 322 330 341 340 336 337 339 335 335 312 305 278 280 289 320 314 303 351 23 21 15 44 30 24
238 231 231 231 231 227 230 217 210 215 240 232 235 233 252 279 293 292 289 293 313 320 321 322 320 329 332 331 335 329 337 339 331 328 331 314 308 284 296 296 22 106 60 27 37 46 46 30 39
236 236 234 229 227 227 232 225 224 228 255 257 237 246 283 278 298 293 270 323 300 316 303 313 325 325 322 324 330 326 333 331 325 319 334 346 325 332 265 170 113 159 128 33 40 40 53 63 59
235 238 238 239 231 229 230 232 232 233 250 246 240 243 261 227 277 265 279 317 280 313 269 301 317 332 313 320 333 327 332 332 323 327 301 338 8 341 196 153 101 131 89 38 49 68 54 48 52
236 235 236 236 238 237 234 233 234 237 243 302 246 264 279 259 275 280 280 267 288 291 263 299 313 326 303 317 333 325 333 333 325 331 275 312 350 339 244 173 100 114 63 98 84 58 83 83 56
235 234 235 238 239 241 235 232 235 238 249 226 257 257 249 252 258 266 280 274 258 263 272 276 299 300 287 299 316 320 322 323 322 329 301 354 41 8 328 182 146 134 111 107 91 87 57 66 62
234 233 234 235 237 238 239 243 242 246 241 229 267 254 262 254 266 265 263 258 262 280 275 283 293 292 286 292 305 313 326 328 324 351 88 46 353 355 22 165 185 218 173 131 124 131 74 60 52
234 236 234 234 239 239 237 245 243 249 246 257 271 268 268 269 267 276 276 271 263 265 273 278 285 274 268 274 296 299 296 324 311 167 147 156 295 307 230 152 158 169 180 213 183 211 298 331 42
234 232 233 233 237 237 239 239 244 251 253 260 265 264 261 265 265 269 272 274 275 269 271 278 264 264 264 278 300 292 293 324 243 192 166 156 159 226 117 180 187 202 221 207 241 168 322 273 247
236 234 232 230 234 234 236 237 243 246 251 251 256 264 270 270 275 271 267 265 264 267 271 269 261 271 280 283 292 287 287 296 225 211 189 207 210 234 254 215 217 238 242 233 228 66 305 248 82
235 233 233 231 233 234 234 236 238 243 248 255 257 263 267 266 261 265 271 269 268 271 242 277 273 277 284 286 262 279 286 293 213 209 207 224 180 220 248 203 206 260 256 252 250 262 283 272 244
236 232 231 228 230 231 232 236 236 240 246 249 257 259 257 259 267 271 269 270 267 267 271 278 286 286 285 286 267 267 281 276 256 211 232 214 217 206 233 251 257 266 283 281 281 258 282 243 243
235 233 229 228 228 230 230 237 243 246 248 253 256 252 243 261 264 267 268 271 279 281 287 293 289 291 288 286 277 267 275 274 243 226 226 236 236 232 233 250 270 263 267 277 286 254 253 246 243
235 230 228 227 230 232 226 227 258 252 248 247 246 247 257 271 269 271 272 284 282 277 291 298 289 281 269 269 276 272 260 242 219 236 226 237 246 241 235 240 258 263 272 269 264 244 239 247 241
239 233 230 225 225 228 224 221 214 237 243 245 247 251 256 258 260 261 271 287 286 288 288 283 274 274 271 264 247 255 222 237 227 244 253 241 252 245 251 255 252 255 269 272 259 246 246 254 254
240 231 226 225 220 223 218 224 231 240 243 247 259 257 263 260 256 262 276 285 279 284 281 278 280 282 287 264 247 235 231 228 233 240 261 265 258 248 261 244 258 253 255 259 265 263 255 252 253
238 226 219 221 224 217 213 214 217 223 267 235 261 270 275 256 259 282 278 275 282 285 280 277 272 266 240 272 243 232 217 215 226 241 223 225 239 240 235 235 245 250 252 259 259 257 256 256 260
235 216 215 207 213 211 206 203 209 209 227 215 248 259 271 266 261 269 269 270 274 276 283 265 247 263 259 269 259 238 227 218 225 234 214 222 227 231 230 236 235 249 251 260 244 247 247 252 272
229 212 209 205 201 206 204 194 211 239 242 222 246 266 282 289 275 287 283 271 276 258 243 262 242 256 264 265 268 247 238 231 222 238 236 227 217 231 228 233 239 247 259 264 257 258 264 268 271
Height
11036 11040 11043 11045 11047 11051 11043 11046 11046 11042 11042 11042 11044 11043 11044 11044 11042 11041 11039 11039 11038 11036 11033 11030 11027 11024 11022 11020 11017 11015 11012 11009 11006 11003 11001 10999 10998 10996 10995 10993 10990 10986 10983 10979 10978 10974 10971 10968 10965
11035 11040 11044 11045 11044 11049 11042 11043 11043 11043 11042 11042 11042 11041 11041 11041 11042 11039 11039 11038 11038 11035 11032 11030 11026 11024 11021 11019 11016 11014 11010 11008 11005 11004 11001 11000 10998 10997 10994 10992 10989 10987 10984 10981 10978 10975 10970 10967 10964
11033 11038 11040 11036 11033 11039 11040 11040 11040 11041 11041 11041 11041 11038 11041 11040 11039 11038 11036 11036 11036 11034 11031 11029 11025 11023 11020 11017 11015 11012 11010 11008 11005 11003 11000 10998 10998 10997 10993 10992 10989 10986 10984 10981 10978 10975 10970 10968 10967
11032 11034 11032 11034 11037 11037 11036 11036 11037 11038 11038 11039 11039 11036 11038 11039 11037 11038 11037 11035 11034 11032 11030 11027 11024 11021 11019 11016 11012 11010 11008 11007 11005 11003 11000 10997 10998 10997 10994 10992 10989 10986 10983 10982 10979 10976 10972 10971 10969
11025 11026 11025 11028 11029 11024 11030 11034 11035 11037 11035 11035 11038 11038 11038 11038 11036 11034 11034 11032 11031 11029 11028 11025 11023 11020 11017 11013 11010 11008 11007 11005 11003 11002 11000 10998 10996 10994 10995 10992 10988 10987 10984 10983 10981 10978 10975 10972 10969
11023 11024 11030 11026 11025 11028 11032 11032 11034 11036 11034 11034 11036 11034 11034 11036 11034 11031 11031 11029 11028 11027 11025 11023 11021 11019 11017 11013 11010 11008 11006 11004 11002 10999 10999 10998 10996 10994 10994 10992 10989 10987 10986 10984 10981 10978 10975 10973 10969
11017 11021 11021 11020 11022 11026 11027 11028 11031 11034 11034 11037 11032 11033 11032 11035 11033 11031 11029 11027 11026 11024 11022 11020 11018 11017 11015 11012 11010 11007 11005 11003 11001 10999 10998 10998 10996 10994 10994 10993 10990 10989 10987 10984 10983 10979 10976 10974 10970
11013 11012 11011 11015 11019 11022 11022 11026 11027 11030 11031 11031 11028 11026 11030 11032 11032 11031 11026 11025 11024 11022 11021 11019 11017 11015 11013 11011 11010 11007 11004 11002 11001 10999 10998 10998 10996 10993 10994 10993 10992 10990 10988 10986 10983 10980 10979 10974 10971
11006 11009 11010 11012 11010 11013 11015 11021 11022 11025 11026 11025 11026 11025 11027 11029 11028 11027 11026 11022 11023 11020 11019 11018 11015 11014 11011 11009 11008 11006 11004 11002 11000 10998 10997 10996 10995 10993 10993 10993 10992 10990 10990 10988 10984 10981 10979 10974 10970
11004 11007 11007 11007 11007 11009 11014 11017 11020 11020 11022 11023 11022 11024 11022 11027 11025 11023 11022 11022 11019 11019 11016 11016 11015 11013 11010 11008 11006 11004 11002 11001 10998 10996 10994 10993 10992 10992 10993 10993 10991 10990 10990 10988 10984 10982 10980 10975 10970
11000 11002 11002 11001 11004 11006 11009 11015 11016 11017 11017 11019 11021 11022 11021 11024 11024 11025 11023 11021 11019 11017 11015 11014 11011 11011 11008 11006 11004 11002 11000 10999 10997 10994 10992 10992 10991 10991 10993 10992 10990 10990 10990 10987 10985 10983 10981 10977 10973
10995 10997 10997 10998 10999 11003 11007 11012 11013 11014 11014 11017 11021 11022 11023 11024 11024 11020 11017 11015 11015 11014 11014 11013 11009 11009 11006 11003 11001 11000 10998 10998 10995 10993 10990 10989 10989 10990 10991 10989 10989 10990 10990 10986 10986 10985 10983 10980 10975
10990 10990 10993 10994 10996 10999 11003 11008 11009 11012 11011 11016 11020 11023 11025 11023 11019 11014 11010 11010 11009 11009 11010 11011 11009 11007 11004 11002 11001 10998 10997 10996 10995 10991 10988 10986 10986 10986 10988 10987 10987 10990 10989 10986 10985 10985 10982 10980 10978
10982 10985 10989 10991 10993 10996 10999 11002 11004 11008 11010 11014 11018 11017 11015 11018 11014 11007 10999 11009 11007 11006 11009 11008 11008 11004 11001 10999 10999 10996 10994 10994 10991 10988 10985 10984 10983 10984 10985 10986 10987 10989 10988 10987 10985 10984 10984 10982 10980
10977 10981 10984 10986 10987 10991 10994 10996 11000 11004 11011 11016 11011 11002 11005 11010 11013 11008 11005 11012 11004 11001 11004 11003 11004 11001 10999 10997 10996 10995 10993 10991 10988 10986 10983 10983 10981 10982 10983 10985 10987 10987 10988 10987 10985 10983 10983 10982 10981
10971 10974 10977 10979 10984 10987 10989 10992 10995 11001 11010 11018 11010 10996 10999 11002 11009 11007 11003 11006 11007 10997 11003 11002 10998 10997 10997 10996 10993 10992 10990 10988 10986 10985 10982 10980 10981 10981 10981 10985 10986 10987 10988 10988 10986 10985 10985 10984 10983
10963 10967 10971 10975 10979 10979 10984 10988 10990 10996 11004 10998 11012 11001 11002 11006 11006 10999 10998 11002 11004 11003 11001 10998 10995 10996 10993 10992 10991 10991 10988 10986 10986 10984 10983 10981 10981 10980 10980 10984 10984 10987 10988 10986 10987 10986 10986 10985 10985
10953 10958 10964 10968 10969 10974 10982 10982 10985 10988 10995 10996 11004 11003 11000 11000 10997 10996 11000 11003 11003 11000 10996 10995 10993 10991 10993 10988 10986 10988 10986 10984 10985 10984 10982 10980 10980 10978 10980 10982 10983 10985 10987 10986 10986 10985 10987 10987 10988
10943 10948 10955 10960 10962 10969 10975 10976 10980 10981 10986 10988 10988 10996 10993 10990 10989 10989 10991 10994 10995 10992 10991 10993 10991 10989 10987 10987 10986 10985 10983 10984 10984 10983 10981 10980 10982 10981 10982 10983 10983 10984 10985 10986 10988 10988 10987 10987 10987
10932 10938 10945 10950 10952 10961 10967 10970 10973 10975 10980 10983 10983 10984 10986 10989 10988 10985 10985 10986 10986 10986 10986 10987 10986 10985 10984 10982 10982 10981 10980 10982 10981 10981 10979 10978 10981 10983 10982 10983 10983 10983 10983 10985 10987 10987 10987 10986 10985
10924 10928 10934 10942 10943 10952 10958 10964 10966 10967 10969 10975 10977 10977 10976 10979 10981 10978 10980 10982 10982 10983 10982 10982 10982 10982 10982 10976 10976 10977 10977 10978 10977 10979 10980 10980 10980 10982 10983 10983 10983 10982 10981 10983 10985 10986 10985 10986 10985
10914 10918 10925 10931 10935 10942 10951 10954 10957 10959 10963 10967 10970 10970 10970 10972 10975 10972 10974 10976 10979 10978 10978 10979 10978 10975 10972 10972 10973 10973 10974 10975 10975 10976 10978 10978 10979 10981 10982 10983 10983 10982 10981 10980 10983 10984 10985 10984 10985
10905 10910 10915 10920 10926 10932 10940 10941 10946 10953 10958 10962 10964 10964 10965 10966 10968 10968 10968 10968 10970 10972 10971 10970 10968 10966 10967 10964 10965 10967 10967 10971 10975 10975 10975 10976 10977 10979 10981 10983 10983 10982 10980 10979 10980 10980 10981 10982 10983
10896 10900 10906 10911 10915 10920 10930 10942 10944 10949 10953 10958 10959 10957 10959 10961 10963 10964 10964 10963 10963 10963 10963 10964 10964 10962 10961 10962 10963 10963 10965 10968 10968 10971 10973 10974 10974 10976 10978 10981 10980 10980 10978 10978 10977 10977 10978 10979 10981
10887 10891 10896 10903 10909 10913 10927 10934 10941 10941 10947 10950 10953 10953 10953 10955 10958 10959 10961 10961 10963 10962 10963 10960 10955 10952 10952 10952 10955 10960 10964 10966 10965 10965 10969 10970 10970 10972 10976 10977 10977 10976 10975 10975 10975 10975 10974 10974 10977
10881 10886 10890 10895 10901 10903 10920 10926 10929 10931 10938 10941 10943 10945 10946 10948 10950 10953 10954 10955 10955 10955 10955 10948 10944 10945 10948 10948 10949 10953 10959 10964 10964 10963 10963 10967 10968 10969 10971 10973 10973 10973 10972 10972 10972 10973 10973 10972 10971
10874 10878 10882 10888 10892 10900 10911 10917 10923 10928 10934 10935 10935 10939 10943 10945 10945 10946 10946 10946 10946 10948 10943 10936 10943 10947 10948 10946 10950 10946 10952 10960 10962 10962 10962 10962 10964 10965 10967 10968 10969 10969 10970 10970 10969 10969 10969 10968 10967
10869 10873 10875 10882 10889 10897 10903 10911 10917 10922 10923 10928 10931 10934 10937 10941 10943 10944 10941 10939 10943 10946 10941 10936 10941 10945 10947 10947 10945 10945 10947 10956 10960 10960 10961 10961 10961 10962 10964 10965 10966 10967 10967 10967 10968 10967 10966 10966 10965
10862 10865 10868 10875 10881 10887 10895 10903 10911 10915 10919 10922 10925 10926 10927 10933 10937 10938 10935 10935 10938 10940 10937 10932 10936 10936 10937 10938 10939 10938 10943 10952 10956 10956 10955 10957 10959 10960 10959 10960 10961 10962 10963 10963 10964 10964 10963 10963 10962
10853 10857 10861 10866 10870 10879 10887 10897 10899 10907 10910 10913 10915 10920 10925 10926 10929 10931 10931 10930 10935 10932 10936 10934 10930 10925 10928 10930 10930 10934 10941 10947 10950 10950 10950 10952 10954 10955 10955 10955 10957 10958 10958 10959 10959 10959 10958 10957 10957